Home > Weather > Tuba City > Past weeks

Flag for USA Past Weather in Tuba City, Arizona, USA — Yesterday and Last 2 Weeks

Now
71 °F

Sunny.


Feels Like: 77 °F
Forecast: 54 / 85 °F
Wind: 10 mph from Southwest

Location: Grand Canyon National Park Airport

Current Time: Aug 25, 2016 at 10:59:04 AM

Latest Report: Aug 25, 2016 at 9:54 AM


Visibility: 10 mi

Pressure: 30.01 "Hg (25.19 "Hg at 1510m altitude)

Humidity: 44%

Dew Point: 48 °F

Location of Tuba CityLocation

Past Weather in Tuba City — Graph

°F

Tuba City Temperature Yesterday

Maximum temperature yesterday: 80 °F (at 3:54 PM)
Minimum temperature yesterday: 48 °F (at 6:54 AM)
Average temperature yesterday: 64 °F

High & Low Weather Summary for the Past Weeks

 TemperatureHumidityPressure
High89 °F (Aug 14, 3:54 PM)93% (Aug 19, 1:54 AM)30.36 "Hg (Aug 19, 1:54 AM)
Low44 °F (Aug 25, 6:54 AM)10% (Aug 14, 4:54 PM)29.85 "Hg (Aug 20, 4:54 PM)
Average65 °F56%30.00 "Hg
* Reported Aug 10 8:54 AM — Aug 25 8:54 AM, Tuba City, Weather by CustomWeather, © 2016

Note: Actual official high and low records may vary slightly from our data, if they occured in-between our weather recording intervals... More about our weather records

Advertising

Tuba City Weather History for the Previous 24 Hours

Scroll right to see more
 ConditionsComfort  
Time TempWeatherWind HumidityBarometerVisibility
8:54 AM
Thu, Aug 25
64 °FSunny.No wind54%30.03 "Hg10 mi
7:54 AM49 °FSunny.No wind77%30.06 "Hg10 mi
6:54 AM44 °FClear.No wind85%30.06 "Hg10 mi
5:54 AM46 °FClear.No wind83%30.03 "Hg10 mi
4:54 AM45 °FClear.No wind82%30.02 "Hg10 mi
3:54 AM48 °FClear.No wind77%30.01 "Hg10 mi
2:54 AM48 °FClear.No wind80%30.01 "Hg10 mi
1:54 AM49 °FClear.No wind77%30.02 "Hg10 mi
12:54 AM51 °FClear.No wind74%30.03 "Hg10 mi
11:54 PM
Wed, Aug 24
53 °FClear.5 mph74%30.03 "Hg10 mi
10:54 PM56 °FClear.No wind67%30.03 "Hg10 mi
9:54 PM64 °FClear.3 mph50%30.01 "Hg10 mi
8:54 PM65 °FPassing clouds.5 mph51%30.02 "Hg10 mi
7:54 PM70 °FScattered clouds.No wind37%30.02 "Hg10 mi
6:54 PM73 °FLight rain. Mostly cloudy.13 mph27%30.02 "Hg10 mi
5:54 PM75 °FBroken clouds.14 mph23%29.99 "Hg10 mi
4:54 PM78 °FSunny.7 mph24%29.98 "Hg10 mi
3:54 PM80 °FSunny.7 mph20%29.97 "Hg10 mi
2:54 PM79 °FSunny.12 mph24%29.98 "Hg10 mi
1:54 PM78 °FPassing clouds.9 mph31%30.02 "Hg10 mi
12:54 PM75 °FSunny.6 mph36%30.04 "Hg10 mi
11:54 AM73 °FSunny.5 mph44%30.06 "Hg10 mi
10:54 AM71 °FSunny.8 mph45%30.07 "Hg10 mi
Weather by CustomWeather, © 2016

See weather overviewHow to use our weather pages